Find Starlink 37149

NORAD ID: 68309 Int'l Des: 2026-057 Owner: SPXS Country: US Constellation: starlink operational
LEOCIRCULARRETROGRADE

实时位置

正在加载3D地球...

关于 Starlink 37149

正在加载描述...

即将过境

Passes for default location (London). Set your location on the main map for personalized predictions.

高度历史

Loading altitude history...

两行轨道根数

1 68309U 26057R 26125.80415790 .00229445 00000-0 14984-2 0 9990
2 68309 97.2857 251.0515 0001570 48.3432 311.7968 15.75186698 7279
Epoch: May 5, 2026 • Age: 15 hours

当前状态

高度 344.8 km
速度 7.70 km/s
星下点 16.00°N, 133.86°W
发射日期 Mar 20, 2026
运行时间 0.1 years
类型 internet

技术详情

分类 Payload
质量 575.00 kg
干质量 530.00 kg
总质量 575.00 kg
长度 0.30 m
直径 4.10 m
跨度 29.00 m
形状 Box + pan
制造商 SPXS
平台类型 Starlink V2MO
阶段状态 In Orbit
所有者/国家 SPXS/US

Most Searched